{"data":{"norad_id":52830,"intl_designator":"2022-062A","name":"STARLINK-4091","alt_names":[],"object_type":"PAYLOAD","status":"ACTIVE","operator":null,"country":"US","launch_date":"2022-06-17","launch_site_code":"AFETR","launch_vehicle":null,"mission":null,"orbit_class":"UNKNOWN","rcs_meters":null,"size_class":null,"mass_kg":null,"dimensions":null,"purposes":["comms"],"wikipedia_slug":null,"has_3d_model":false,"image_url":null,"decayed_at":null,"tle_current":{"epoch":"2026-09-19T15:16:20.353152Z","epoch_age_seconds":141030,"freshness":"FRESH","line1":"1 52830U 22062A   26262.63634668  .00000237  00000+0  19416-4 0  9996","line2":"2 52830  53.1589 232.8531 0001292  91.9622 268.1528 15.31700049235202","mean_motion":15.31700049,"eccentricity":0.0001292,"inclination_deg":53.1589,"raan_deg":232.8531,"arg_perigee_deg":91.9622,"mean_anomaly_deg":268.1528,"bstar":1.9416e-5,"rev_number":23520,"period_min":94.013184953551,"perigee_km":469.85497427029,"apogee_km":471.62472404811,"semimajor_km":6848.8768491592,"source":"CELESTRAK","updated_at":"2026-09-20T09:00:40.110440Z"}}}